Jamul (75, 524) Station Data

Red Flag Warning: No
Fire Weather Zone: 250
SDGE Region: Eastern
Lat/Lon: 32.714/-116.869

Observations

Time Wind Speed/Gust Temp(F) RH Fuel Moist Fuel Temp(F) Dewpt(F) Tmax(F) Tmin(F) Accum Precip 10-min Precip SL Press(mb)
5/24 8:30am 307 4 G 6 58° 93% - - 56° 58.2° 53.5° - - -
5/24 8:20am 331 4 G 7 58° 93% - - 55° 58° 53.5° - - -
5/24 8:10am 309 4 G 6 57° 93% - - 55° 57.9° 53.5° - - -
5/24 8:00am 273 3 G 6 57° 93% - - 55° 57.8° 53.5° - - -
5/24 7:50am 280 1 G 2 57° 93% - - 55° 57.6° 53.5° - - -
5/24 7:40am 88 2 G 4 57° 93% - - 54° 57.6° 53.5° - - -
5/24 7:30am 70 2 G 4 56° 93% - - 54° 57.6° 53.5° - - -
5/24 7:20am 33 1 G 3 56° 93% - - 54° 57.6° 53.5° - - -
5/24 7:10am 251 0 G 3 56° 93% - - 54° 57.6° 53.5° - - -
5/24 7:00am 206 1 G 4 56° 93% - - 54° 57.6° 53.5° - - -
5/24 6:50am 118 3 G 5 56° 93% - - 54° 57.6° 53.5° - - -
5/24 6:40am 84 4 G 7 56° 93% - - 54° 57.6° 53.5° - - -
5/24 6:30am 61 2 G 4 55° 93% - - 53° 57.6° 53.5° - - -
5/24 6:20am 216 3 G 8 56° 93% - - 54° 57.6° 53.5° - - -
5/24 6:10am 292 5 G 10 56° 93% - - 54° 57.6° 53.5° - - -
5/24 6:00am 303 4 G 8 55° 93% - - 53° 57.6° 53.5° - - -
5/24 5:50am 274 5 G 10 55° 93% - - 53° 57.6° 53.5° - - -
5/24 5:40am 240 3 G 9 54° 93% - - 52° 57.6° 53.5° - - -
5/24 5:30am 167 2 G 4 54° 93% - - 52° 57.6° 53.5° - - -
5/24 5:20am 112 2 G 3 54° 93% - - 52° 57.6° 53.6° - - -
5/24 5:10am 115 3 G 4 54° 93% - - 52° 57.6° 54° - - -
5/24 5:00am 122 2 G 4 54° 93% - - 52° 57.6° 54.2° - - -
5/24 4:50am 109 3 G 4 55° 93% - - 53° 57.6° 54.3° - - -
5/24 4:40am 107 1 G 4 55° 93% - - 53° 57.6° 54.3° - - -
5/24 4:30am 87 2 G 3 55° 92% - - 53° 57.6° 54.3° - - -
5/24 4:20am 71 2 G 4 55° 92% - - 53° 57.6° 54.3° - - -
5/24 4:10am 99 3 G 5 56° 92% - - 54° 57.6° 54.3° - - -
5/24 4:00am 69 1 G 3 56° 92% - - 54° 57.6° 54.3° - - -
5/24 3:50am 63 1 G 3 56° 92% - - 54° 57.6° 54.3° - - -
5/24 3:40am 108 2 G 5 56° 92% - - 54° 57.6° 54.3° - - -
5/24 3:30am 116 2 G 5 56° 92% - - 54° 57.6° 54.3° - - -
5/24 3:20am 191 1 G 4 56° 92% - - 54° 57.6° 54.3° - - -
5/24 3:10am 350 2 G 3 56° 92% - - 54° 57.6° 54.3° - - -
5/24 3:00am 309 1 G 2 56° 92% - - 54° 57.6° 54.3° - - -
5/24 2:50am 264 2 G 6 56° 92% - - 53° 57.6° 54.3° - - -
5/24 2:40am 257 2 G 4 55° 92% - - 53° 57.6° 54.3° - - -
5/24 2:30am 313 2 G 3 55° 92% - - 52° 57.6° 54.3° - - -
5/24 2:20am 348 2 G 3 55° 91% - - 52° 57.6° 54.3° - - -
5/24 2:10am 326 2 G 3 55° 91% - - 52° 57.6° 54.5° - - -
5/24 2:00am 247 1 G 3 55° 91% - - 52° 57.6° 54.5° - - -
5/24 1:50am 220 0 G 2 55° 91% - - 52° 57.6° 54.5° - - -
5/24 1:40am 271 0 G 1 55° 91% - - 53° 57.6° 54.7° - - -
5/24 1:30am 286 1 G 2 55° 91% - - 53° 57.6° 54.8° - - -
5/24 1:20am 293 1 G 2 55° 91% - - 53° 57.6° 54.8° - - -
5/24 1:10am 0 0 G 0 55° 91% - - 53° 57.6° 54.8° - - -
5/24 1:00am 75 0 G 1 55° 91% - - 52° 57.6° 54.8° - - -
5/24 12:50am 91 0 G 1 55° 91% - - 53° 57.6° 55.1° - - -
5/24 12:40am 74 1 G 3 56° 90% - - 53° 57.6° 55.2° - - -
5/24 12:30am 72 1 G 1 56° 90% - - 53° 57.6° 55.9° - - -
5/24 12:20am 136 1 G 2 56° 89% - - 53° 57.6° 56° - - -
5/24 12:10am 145 2 G 3 57° 88% - - 53° 57.6° 56.2° - - -
5/24 12:00am 157 3 G 4 58° 87% - - 54° 84.9° 52.8° - - -
5/23 11:50pm 183 2 G 5 59° 86% - - 55° 84.9° 52.8° - - -
5/23 11:40pm 209 1 G 3 60° 85% - - 55° 84.9° 52.8° - - -
5/23 11:30pm 257 1 G 3 60° 84% - - 55° 84.9° 52.8° - - -
5/23 11:20pm 255 1 G 3 60° 82% - - 55° 84.9° 52.8° - - -
5/23 11:10pm 273 2 G 4 61° 79% - - 55° 84.9° 52.8° - - -
5/23 11:00pm 284 1 G 4 61° 78% - - 54° 84.9° 52.8° - - -
5/23 10:50pm 154 0 G 1 62° 77% - - 55° 84.9° 52.8° - - -
5/23 10:40pm 203 0 G 1 62° 77% - - 55° 84.9° 52.8° - - -
5/23 10:30pm 0 0 G 0 62° 77% - - 54° 84.9° 52.8° - - -
5/23 10:20pm 0 0 G 0 62° 76% - - 54° 84.9° 52.8° - - -
5/23 10:10pm 85 2 G 3 63° 75% - - 55° 84.9° 52.8° - - -
5/23 10:00pm 85 1 G 2 63° 74% - - 55° 84.9° 52.8° - - -
5/23 9:50pm 114 1 G 1 64° 72% - - 55° 84.9° 52.8° - - -
5/23 9:40pm 123 1 G 2 64° 72% - - 55° 84.9° 52.8° - - -
5/23 9:30pm 192 1 G 2 65° 71% - - 55° 84.9° 52.8° - - -
5/23 9:20pm 0 0 G 0 65° 69% - - 55° 84.9° 52.8° - - -
5/23 9:10pm 350 1 G 2 66° 68% - - 55° 84.9° 52.8° - - -
5/23 9:00pm 0 0 G 0 66° 67% - - 55° 84.9° 52.8° - - -
5/23 8:50pm 285 1 G 3 67° 66% - - 55° 84.9° 52.8° - - -
5/23 8:40pm 239 2 G 4 68° 64% - - 55° 84.9° 52.8° - - -
5/23 8:30pm 276 2 G 4 68° 62% - - 55° 84.9° 52.8° - - -
5/23 8:20pm 313 2 G 4 69° 61% - - 55° 84.9° 52.8° - - -
5/23 8:10pm 311 4 G 6 69° 60% - - 55° 84.9° 52.8° - - -
5/23 8:00pm 309 4 G 6 70° 59% - - 55° 84.9° 52.8° - - -
5/23 7:50pm 305 5 G 8 71° 58% - - 55° 84.9° 52.8° - - -
5/23 7:40pm 308 4 G 7 71° 56% - - 55° 84.9° 52.8° - - -
5/23 7:30pm 332 3 G 6 72° 55% - - 55° 84.9° 52.8° - - -
5/23 7:20pm 331 4 G 6 73° 52% - - 55° 84.9° 52.8° - - -
5/23 7:10pm 335 4 G 6 74° 51% - - 55° 84.9° 52.8° - - -
5/23 7:00pm 346 4 G 6 74° 50% - - 55° 84.9° 52.8° - - -
5/23 6:50pm 340 4 G 7 75° 49% - - 55° 84.9° 52.8° - - -
5/23 6:40pm 271 3 G 6 76° 48% - - 55° 84.9° 52.8° - - -
5/23 6:30pm 256 3 G 6 76° 48% - - 55° 84.9° 52.8° - - -
5/23 6:20pm 265 4 G 8 76° 49% - - 55° 84.9° 52.8° - - -
5/23 6:10pm 248 5 G 9 76° 48% - - 55° 84.9° 52.8° - - -
5/23 6:00pm 255 5 G 9 77° 47% - - 55° 84.9° 52.8° - - -
5/23 5:50pm 279 5 G 9 78° 45% - - 55° 84.9° 52.8° - - -
5/23 5:40pm 278 5 G 10 79° 44% - - 55° 84.9° 52.8° - - -
5/23 5:30pm 295 7 G 12 81° 39% - - 53° 84.9° 52.8° - - -
5/23 5:20pm 288 7 G 12 81° 37% - - 52° 84.9° 52.8° - - -
5/23 5:10pm 291 6 G 10 82° 36% - - 52° 84.9° 52.8° - - -
5/23 5:00pm 285 6 G 10 81° 36% - - 52° 84.9° 52.8° - - -
5/23 4:50pm 288 7 G 11 81° 37% - - 52° 84.9° 52.8° - - -
5/23 4:40pm 299 6 G 12 81° 37% - - 52° 84.9° 52.8° - - -
5/23 4:30pm 288 6 G 10 81° 38% - - 53° 84.9° 52.8° - - -
5/23 4:20pm 292 6 G 10 81° 39% - - 54° 84.9° 52.8° - - -
5/23 4:10pm 287 6 G 11 81° 40% - - 54° 84.9° 52.8° - - -
5/23 4:00pm 310 7 G 12 81° 39% - - 54° 84.9° 52.8° - - -
5/23 3:50pm 291 7 G 11 81° 39% - - 53° 84.9° 52.8° - - -
5/23 3:40pm 292 6 G 10 80° 40% - - 54° 84.9° 52.8° - - -
5/23 3:30pm 301 7 G 12 80° 41% - - 54° 84.9° 52.8° - - -
5/23 3:20pm 299 6 G 10 79° 44% - - 55° 84.9° 52.8° - - -
5/23 3:10pm 298 6 G 10 78° 45% - - 56° 84.9° 52.8° - - -
5/23 3:00pm 283 5 G 9 77° 48% - - 56° 84.9° 52.8° - - -
5/23 2:50pm 301 5 G 10 77° 49% - - 57° 84.9° 52.8° - - -
5/23 2:40pm 323 6 G 12 76° 50% - - 57° 84.9° 52.8° - - -
5/23 2:30pm 312 7 G 12 76° 51% - - 57° 84.9° 52.8° - - -
5/23 2:20pm 315 8 G 12 76° 51% - - 56° 84.9° 52.8° - - -
5/23 2:10pm 307 7 G 11 76° 50% - - 56° 84.9° 52.8° - - -
5/23 2:00pm 313 8 G 13 76° 51% - - 56° 84.9° 52.8° - - -
5/23 1:50pm 317 8 G 13 75° 52% - - 56° 84.9° 52.8° - - -
5/23 1:40pm 313 8 G 14 75° 52% - - 56° 84.9° 52.8° - - -
5/23 1:30pm 316 8 G 13 75° 52% - - 56° 84.9° 52.8° - - -
5/23 1:20pm 315 9 G 14 75° 52% - - 56° 84.9° 52.8° - - -
5/23 1:10pm 318 9 G 15 76° 51% - - 57° 84.9° 52.8° - - -
5/23 1:00pm 317 9 G 13 76° 51% - - 56° 84.9° 52.8° - - -
5/23 12:50pm 297 7 G 12 76° 52% - - 57° 84.9° 52.8° - - -
5/23 12:40pm 265 6 G 11 75° 53% - - 57° 84.9° 52.8° - - -
5/23 12:30pm 268 8 G 13 76° 51% - - 57° 84.9° 52.8° - - -
5/23 12:20pm 291 8 G 13 76° 49% - - 56° 84.9° 52.8° - - -
5/23 12:10pm 309 9 G 15 77° 47% - - 55° 84.9° 52.8° - - -
5/23 12:00pm 309 9 G 15 79° 44% - - 55° 84.9° 52.8° - - -
5/23 11:50am 273 7 G 13 79° 44% - - 55° 84.9° 52.8° - - -
5/23 11:40am 242 6 G 11 79° 45% - - 56° 84.9° 52.8° - - -
5/23 11:30am 257 7 G 12 80° 42% - - 55° 84.9° 52.8° - - -
5/23 11:20am 284 6 G 10 82° 35% - - 52° 84.9° 52.8° - - -
5/23 11:10am 308 8 G 11 82° 31% - - 49° 84.9° 52.8° - - -
5/23 11:00am 310 7 G 10 82° 32% - - 50° 84.9° 52.8° - - -
5/23 10:50am 315 8 G 12 82° 35% - - 51° 84.9° 52.8° - - -
5/23 10:40am 309 8 G 11 81° 37% - - 52° 84.9° 52.8° - - -
5/23 10:30am 315 7 G 11 81° 37% - - 53° 84.9° 52.8° - - -
5/23 10:20am 307 7 G 12 82° 35% - - 52° 84.9° 52.8° - - -
5/23 10:10am 306 5 G 8 83° 33% - - 51° 84.9° 52.8° - - -
5/23 10:00am 247 3 G 8 85° 26% - - 46° 84.9° 52.8° - - -
5/23 9:50am 191 1 G 3 84° 23% - - 42° 84.2° 52.8° - - -
5/23 9:40am 171 2 G 4 82° 28% - - 46° 83.1° 52.8° - - -
5/23 9:30am 139 1 G 3 81° 33% - - 49° 81.5° 52.8° - - -
5/23 9:20am 127 2 G 4 78° 34% - - 48° 79.8° 52.8° - - -
5/23 9:10am 142 2 G 5 77° 35% - - 47° 78.3° 52.8° - - -
5/23 9:00am 134 2 G 4 75° 38% - - 48° 76.2° 52.8° - - -
5/23 8:50am 170 2 G 3 73° 45% - - 50° 74° 52.8° - - -
5/23 8:40am 157 3 G 5 70° 53% - - 52° 71.4° 52.8° - - -
5/23 8:30am 126 4 G 5 67° 59% - - 53° 68.6° 52.8° - - -
5/23 8:20am 124 4 G 5 66° 66% - - 54° 66.4° 52.8° - - -
5/23 8:10am 134 3 G 4 64° 71% - - 54° 65.3° 52.8° - - -
5/23 8:00am 127 3 G 4 62° 77% - - 54° 62.6° 52.8° - - -
5/23 7:50am 131 3 G 4 59° 83% - - 54° 60.5° 52.8° - - -
5/23 7:40am 124 2 G 3 58° 86% - - 54° 58.7° 52.8° - - -
5/23 7:30am 127 2 G 3 58° 87% - - 54° 58.6° 52.8° - - -
5/23 7:20am 183 2 G 3 58° 88% - - 55° 58.6° 52.8° - - -
5/23 7:10am 200 1 G 3 58° 90% - - 55° 58.4° 52.8° - - -
5/23 7:00am 309 1 G 3 56° 90% - - 53° 58° 52.8° - - -
5/23 6:50am 326 3 G 4 56° 90% - - 53° 58° 52.8° - - -
5/23 6:40am 333 2 G 3 55° 91% - - 53° 58° 52.8° - - -
5/23 6:30am 318 2 G 3 55° 91% - - 53° 58° 52.8° - - -
5/23 6:20am 321 3 G 4 55° 92% - - 52° 58° 52.8° - - -
5/23 6:10am 324 3 G 5 54° 92% - - 52° 58° 52.8° - - -
5/23 6:00am 322 0 G 2 53° 92% - - 51° 58° 52.8° - - -